This is the latest recevied weather packets stored in our database for station/object IK2ILW-6. If no packets are shown the sender has not sent any weather packets the latest 10 day(s).
| Time | Temp. | Humidity | Pressure | Rain* | Wind** | Luminosity | Snow |
|---|---|---|---|---|---|---|---|
| 1778233302 | 4.44° C | 95% | 1017.4 hPa | 0 mm | - | 30 W/m² | - |
| 1778232986 | 4.44° C | 95% | 1017.4 hPa | 0 mm | - | 39 W/m² | - |
| 1778232690 | 4.44° C | 94% | 1017.4 hPa | 0 mm | - | 58 W/m² | - |
| 1778232395 | 4.44° C | 93% | 1017.4 hPa | 0 mm | - | 100 W/m² | - |
| 1778232100 | 4.44° C | 93% | 1017.4 hPa | 0 mm | - | 132 W/m² | - |
| 1778231784 | 4.44° C | 93% | 1017.4 hPa | 0 mm | - | 171 W/m² | - |
| 1778231489 | 4.44° C | 93% | 1017.4 hPa | 0 mm | - | 139 W/m² | - |
| 1778231198 | 4.44° C | 92% | 1017.3 hPa | 0 mm | - | 121 W/m² | - |
| 1778230902 | 4.44° C | 92% | 1017.3 hPa | 0 mm | - | 76 W/m² | - |
| 1778230586 | 5° C | 91% | 1017.3 hPa | 0 mm | - | 67 W/m² | - |
| 1778230288 | 5.56° C | 90% | 1017.1 hPa | 0 mm | - | 102 W/m² | - |
| 1778229991 | 5.56° C | 90% | 1017.1 hPa | 0 mm | - | 355 W/m² | - |
| 1778229696 | 5.56° C | 91% | 1017.1 hPa | 0 mm | - | 199 W/m² | - |
| 1778229401 | 6.11° C | 90% | 1017.1 hPa | 0 mm | - | 190 W/m² | - |
| 1778229085 | 5.56° C | 89% | 1017 hPa | 0 mm | - | 814 W/m² | - |
| 1778228792 | 5.56° C | 88% | 1017 hPa | 0 mm | - | 281 W/m² | - |
| 1778228497 | 5.56° C | 89% | 1016.9 hPa | 0 mm | - | 174 W/m² | - |
| 1778228186 | 5.56° C | 89% | 1016.9 hPa | 0 mm | - | 183 W/m² | - |
| 1778227889 | 5.56° C | 91% | 1016.9 hPa | 0 mm | - | 274 W/m² | - |
| 1778227593 | 5° C | 90% | 1016.9 hPa | 0 mm | - | 810 W/m² | - |
| 1778227296 | 5° C | 92% | 1016.9 hPa | 0 mm | - | 360 W/m² | - |
| 1778227000 | 5° C | 89% | 1016.9 hPa | 0 mm | - | 142 W/m² | - |
| 1778226684 | 5° C | 88% | 1017 hPa | 0 mm | - | 216 W/m² | - |
| 1778226389 | 5.56° C | 86% | 1016.8 hPa | 0 mm | - | 218 W/m² | - |
| 1778226171 | 6.67° C | 88% | 1016.9 hPa | 0 mm | - | 244 W/m² | - |
* Rain latest hour (hover to see other rain measurements)
** Current wind speed in m/s (hover to see current wind gust speed)